User: anonymous   Login
Location: Igon
(43.1667°N, 0.2333°W)
Time: 16:34:27
(UTC+00:00)
Language:

NOAA 16 DEB - Orbit

View from above orbital plane
View from above orbital plane
View from above satellite
View from above satellite

Ground track
Ground track

The orbit data is extracted from the following two-line orbital elements,

1 41148U 00055CF  21173.26462754  .00002772  00000-0  79425-3 0  9996
2 41148  98.8554 339.2535 0087594 213.7363 145.8234 14.43629210292054
Epoch (UTC): 22 June 2021 06:21:03
Eccentricity: 0.0087594
inclination: 98.8554°
perigee height: 684 km
apogee height: 809 km
right ascension of ascending node: 339.2535°
argument of perigee: 213.7363°
revolutions per day: 14.43629210
mean anomaly at epoch: 145.8234°
orbit number at epoch: 29205

The dashed part of the orbit path shows where the satellite is in the earth's shadow,  

DLR